| time (UTC) | temp F | wind direction | speed knots | gust knots | rain 1hr in | rain 24hr in | rain mn in | humidity % | barometer mb |
| 20260510165656 | 55 | 291 | 3.5 | 6.1 | 0.00 | 0.00 | 0.00 | 42 | 1019.8 |
| 20260510165151 | 55 | 304 | 5.2 | 7.8 | 0.00 | 0.00 | 0.00 | 42 | 1019.7 |
| 20260510164649 | 54 | 312 | 1.7 | 6.1 | 0.00 | 0.00 | 0.00 | 43 | 1019.9 |
| 20260510164147 | 54 | 292 | 2.6 | 5.2 | 0.00 | 0.00 | 0.00 | 43 | 1020.0 |
| 20260510163641 | 54 | 309 | 4.3 | 6.1 | 0.00 | 0.00 | 0.00 | 43 | 1020.0 |
| 20260510163137 | 55 | 312 | 7.8 | 8.7 | 0.00 | 0.00 | 0.00 | 43 | 1019.9 |
| 20260510162632 | 55 | 301 | 1.7 | 6.1 | 0.00 | 0.00 | 0.00 | 42 | 1019.9 |
| 20260510162129 | 55 | 279 | 2.6 | 7.0 | 0.00 | 0.00 | 0.00 | 42 | 1019.7 |
| 20260510161625 | 55 | 317 | 1.7 | 6.1 | 0.00 | 0.00 | 0.00 | 44 | 1019.8 |
| 20260510161121 | 54 | 50 | 2.6 | 5.2 | 0.00 | 0.00 | 0.00 | 42 | 1019.8 |
| 20260510160619 | 54 | 306 | 2.6 | 4.3 | 0.00 | 0.00 | 0.00 | 45 | 1019.7 |
| 20260510160118 | 54 | 347 | 2.6 | 5.2 | 0.00 | 0.00 | 0.00 | 45 | 1019.5 |
| 20260510155615 | 55 | 19 | 2.6 | 6.1 | 0.00 | 0.00 | 0.00 | 43 | 1019.6 |
| 20260510155111 | 54 | 306 | 2.6 | 4.3 | 0.00 | 0.00 | 0.00 | 45 | 1019.6 |
| 20260510154607 | 53 | 270 | 2.6 | 4.3 | 0.00 | 0.00 | 0.00 | 47 | 1019.5 |
| 20260510154102 | 53 | 288 | 0.0 | 4.3 | 0.00 | 0.00 | 0.00 | 46 | 1019.6 |
| 20260510153557 | 53 | 270 | 1.7 | 5.2 | 0.00 | 0.00 | 0.00 | 46 | 1019.5 |
| 20260510153054 | 53 | 313 | 3.5 | 5.2 | 0.00 | 0.00 | 0.00 | 48 | 1019.4 |
| 20260510152551 | 53 | 7 | 1.7 | 4.3 | 0.00 | 0.00 | 0.00 | 47 | 1019.4 |
| 20260510152048 | 52 | 284 | 1.7 | 4.3 | 0.00 | 0.00 | 0.00 | 49 | 1019.5 |
| 20260510151544 | 52 | 304 | 2.6 | 6.1 | 0.00 | 0.00 | 0.00 | 47 | 1019.3 |
| 20260510151042 | 52 | 302 | 5.2 | 6.1 | 0.00 | 0.00 | 0.00 | 47 | 1019.3 |
| 20260510150537 | 52 | 34 | 1.7 | 2.6 | 0.00 | 0.00 | 0.00 | 49 | 1019.4 |
| 20260510150033 | 51 | 309 | 1.7 | 1.7 | 0.00 | 0.00 | 0.00 | 49 | 1019.4 |
| 20260510145530 | 51 | 282 | 0.9 | 4.3 | 0.00 | 0.00 | 0.00 | 48 | 1019.5 |
| 20260510145026 | 51 | 24 | 3.5 | 6.1 | 0.00 | 0.00 | 0.00 | 48 | 1019.1 |
| 20260510144523 | 51 | 284 | 1.7 | 5.2 | 0.00 | 0.00 | 0.00 | 49 | 1019.5 |
| 20260510144019 | 51 | 348 | 2.6 | 4.3 | 0.00 | 0.00 | 0.00 | 49 | 1019.5 |
| 20260510143514 | 51 | 280 | 1.7 | 4.3 | 0.00 | 0.00 | 0.00 | 51 | 1019.5 |
| 20260510143011 | 51 | 316 | 1.7 | 1.7 | 0.00 | 0.00 | 0.00 | 50 | 1019.2 |
| 20260510142508 | 51 | 346 | 2.6 | 4.3 | 0.00 | 0.00 | 0.00 | 50 | 1019.4 |
| 20260510142004 | 51 | 289 | 0.9 | 4.3 | 0.00 | 0.00 | 0.00 | 51 | 1019.2 |
| 20260510141501 | 50 | 64 | 1.7 | 1.7 | 0.00 | 0.00 | 0.00 | 52 | 1019.3 |
| 20260510140959 | 50 | 272 | 0.0 | 1.7 | 0.00 | 0.00 | 0.00 | 54 | 1019.1 |
| 20260510140455 | 49 | 296 | 0.9 | 1.7 | 0.00 | 0.00 | 0.00 | 54 | 1019.3 |
| 20260510135954 | 49 | 34 | 0.9 | 1.7 | 0.00 | 0.00 | 0.00 | 55 | 1019.1 |
| 20260510135450 | 49 | 263 | 0.9 | 1.7 | 0.00 | 0.00 | 0.00 | 56 | 1019.2 |
| 20260510134947 | 48 | 12 | 0.0 | 1.7 | 0.00 | 0.00 | 0.00 | 57 | 1019.1 |
| 20260510134444 | 48 | 327 | 0.9 | 1.7 | 0.00 | 0.00 | 0.00 | 57 | 1019.3 |
| 20260510133941 | 48 | 291 | 0.9 | 1.7 | 0.00 | 0.00 | 0.00 | 57 | 1019.0 |
| 20260510133436 | 48 | 284 | 0.0 | 0.9 | 0.00 | 0.00 | 0.00 | 58 | 1019.2 |
| 20260510132932 | 48 | 5 | 2.6 | 2.6 | 0.00 | 0.00 | 0.00 | 58 | 1019.2 |
| 20260510132430 | 47 | 280 | 0.9 | 1.7 | 0.00 | 0.00 | 0.00 | 58 | 1019.2 |
| 20260510131926 | 47 | 45 | 2.6 | 2.6 | 0.00 | 0.00 | 0.00 | 59 | 1019.0 |
| 20260510131424 | 47 | 351 | 0.9 | 0.9 | 0.00 | 0.00 | 0.00 | 60 | 1019.1 |
| 20260510130920 | 47 | 41 | 0.9 | 1.7 | 0.00 | 0.00 | 0.00 | 60 | 1018.9 |
| 20260510130418 | 47 | 62 | 1.7 | 1.7 | 0.00 | 0.00 | 0.00 | 61 | 1019.0 |
| 20260510125915 | 47 | 263 | 0.0 | 0.9 | 0.00 | 0.00 | 0.00 | 65 | 1018.9 |
| 20260510125410 | 46 | 272 | 0.0 | 0.0 | 0.00 | 0.00 | 0.00 | 67 | 1018.9 |
| 20260510124908 | 45 | 272 | 0.0 | 0.0 | 0.00 | 0.00 | 0.00 | 71 | 1018.9 |
| 20260510124404 | 45 | 273 | 0.0 | 0.9 | 0.00 | 0.00 | 0.00 | 73 | 1018.9 |
| 20260510123900 | 44 | 272 | 0.0 | 0.0 | 0.00 | 0.00 | 0.00 | 75 | 1018.9 |
| 20260510123356 | 43 | 272 | 0.0 | 0.0 | 0.00 | 0.00 | 0.00 | 75 | 1018.6 |
| 20260510122853 | 43 | 272 | 0.0 | 0.0 | 0.00 | 0.00 | 0.00 | 75 | 1018.8 |
| 20260510122348 | 42 | 272 | 0.0 | 0.0 | 0.00 | 0.00 | 0.00 | 75 | 1018.7 |
| 20260510121845 | 42 | 272 | 0.0 | 0.0 | 0.00 | 0.00 | 0.00 | 74 | 1018.7 |
| 20260510121343 | 41 | 272 | 0.0 | 0.0 | 0.00 | 0.00 | 0.00 | 73 | 1018.7 |
| 20260510120839 | 41 | 273 | 0.0 | 0.9 | 0.00 | 0.00 | 0.00 | 73 | 1018.5 |
| 20260510120337 | 40 | 257 | 0.0 | 0.0 | 0.00 | 0.00 | 0.00 | 73 | 1018.4 |
| 20260510115832 | 40 | 257 | 0.0 | 0.0 | 0.00 | 0.00 | 0.00 | 73 | 1018.4 |
| 20260510115329 | 39 | 257 | 0.0 | 0.0 | 0.00 | 0.00 | 0.00 | 73 | 1018.5 |
| 20260510114825 | 39 | 257 | 0.0 | 0.0 | 0.00 | 0.00 | 0.00 | 73 | 1018.2 |
| 20260510114323 | 39 | 256 | 0.0 | 0.0 | 0.00 | 0.00 | 0.00 | 73 | 1018.0 |
| 20260510113817 | 38 | 256 | 0.0 | 0.0 | 0.00 | 0.00 | 0.00 | 73 | 1017.9 |
| 20260510113314 | 38 | 256 | 0.0 | 0.9 | 0.00 | 0.00 | 0.00 | 73 | 1018.1 |
| 20260510112811 | 38 | 256 | 0.0 | 0.0 | 0.00 | 0.00 | 0.00 | 73 | 1017.9 |
| 20260510112308 | 38 | 262 | 0.0 | 0.9 | 0.00 | 0.00 | 0.00 | 73 | 1017.8 |
| 20260510111804 | 38 | 218 | 0.0 | 0.0 | 0.00 | 0.00 | 0.00 | 73 | 1017.8 |
| 20260510111301 | 37 | 218 | 0.0 | 0.9 | 0.00 | 0.00 | 0.00 | 74 | 1017.7 |
| 20260510110800 | 37 | 218 | 0.0 | 0.0 | 0.00 | 0.00 | 0.00 | 74 | 1017.6 |
| 20260510110258 | 37 | 217 | 0.0 | 1.7 | 0.00 | 0.00 | 0.00 | 74 | 1017.5 |
| 20260510105758 | 37 | 213 | 0.9 | 1.7 | 0.00 | 0.00 | 0.00 | 75 | 1017.3 |
| 20260510105253 | 37 | 216 | 0.0 | 0.9 | 0.00 | 0.00 | 0.00 | 76 | 1017.6 |
| 20260510104750 | 37 | 216 | 0.9 | 0.9 | 0.00 | 0.00 | 0.00 | 76 | 1017.5 |
| 20260510104248 | 36 | 216 | 0.9 | 0.9 | 0.00 | 0.00 | 0.00 | 76 | 1017.3 |
| 20260510103744 | 36 | 216 | 0.9 | 0.9 | 0.00 | 0.00 | 0.00 | 76 | 1017.6 |
| 20260510103241 | 37 | 216 | 0.9 | 0.9 | 0.00 | 0.00 | 0.00 | 75 | 1017.3 |
| 20260510102740 | 37 | 216 | 0.0 | 0.0 | 0.00 | 0.00 | 0.00 | 75 | 1017.2 |
| 20260510102236 | 37 | 216 | 0.0 | 0.0 | 0.00 | 0.00 | 0.00 | 74 | 1017.2 |
| 20260510101734 | 37 | 216 | 0.0 | 0.0 | 0.00 | 0.00 | 0.00 | 74 | 1017.2 |
| 20260510101233 | 37 | 216 | 0.0 | 0.0 | 0.00 | 0.00 | 0.00 | 74 | 1016.9 |
| 20260510100728 | 37 | 215 | 0.9 | 0.9 | 0.00 | 0.00 | 0.00 | 73 | 1016.8 |
| 20260510100226 | 37 | 216 | 0.0 | 0.9 | 0.00 | 0.00 | 0.00 | 73 | 1016.8 |
| 20260510095721 | 37 | 216 | 0.0 | 0.0 | 0.00 | 0.00 | 0.00 | 74 | 1016.7 |
| 20260510095217 | 37 | 216 | 0.0 | 0.0 | 0.00 | 0.00 | 0.00 | 73 | 1016.6 |
| 20260510094715 | 37 | 215 | 0.0 | 0.0 | 0.00 | 0.00 | 0.00 | 72 | 1016.5 |
| 20260510094211 | 37 | 215 | 0.0 | 0.0 | 0.00 | 0.00 | 0.00 | 72 | 1016.6 |
| 20260510093707 | 38 | 215 | 0.0 | 0.0 | 0.00 | 0.00 | 0.00 | 72 | 1016.4 |
| 20260510093205 | 38 | 215 | 0.0 | 0.0 | 0.00 | 0.00 | 0.00 | 72 | 1016.2 |
| 20260510092701 | 38 | 215 | 0.9 | 0.9 | 0.00 | 0.00 | 0.00 | 72 | 1016.2 |
| 20260510092157 | 38 | 215 | 0.0 | 0.0 | 0.00 | 0.00 | 0.00 | 72 | 1016.3 |
| 20260510091652 | 38 | 215 | 0.0 | 0.9 | 0.00 | 0.00 | 0.00 | 71 | 1016.2 |
| 20260510091149 | 38 | 215 | 0.0 | 0.0 | 0.00 | 0.00 | 0.00 | 71 | 1016.2 |
| 20260510090646 | 38 | 215 | 0.0 | 0.9 | 0.00 | 0.00 | 0.00 | 71 | 1016.0 |
| 20260510090143 | 38 | 215 | 0.0 | 0.9 | 0.00 | 0.00 | 0.00 | 70 | 1016.1 |
| 20260510085638 | 38 | 215 | 0.0 | 0.0 | 0.00 | 0.00 | 0.00 | 70 | 1016.1 |
| 20260510085133 | 38 | 215 | 0.0 | 0.9 | 0.00 | 0.00 | 0.00 | 70 | 1016.0 |
| 20260510084630 | 39 | 215 | 0.9 | 0.9 | 0.00 | 0.00 | 0.00 | 69 | 1016.0 |
| 20260510084126 | 39 | 215 | 0.9 | 0.9 | 0.00 | 0.00 | 0.00 | 69 | 1015.9 |
| 20260510083623 | 39 | 215 | 0.9 | 1.7 | 0.00 | 0.00 | 0.00 | 68 | 1015.7 |
| 20260510083119 | 39 | 216 | 0.9 | 0.9 | 0.00 | 0.00 | 0.00 | 66 | 1015.7 |
| 20260510082610 | 39 | 216 | 0.9 | 0.9 | 0.00 | 0.00 | 0.00 | 66 | 1015.7 |
| 20260510082105 | 40 | 217 | 0.0 | 0.9 | 0.00 | 0.00 | 0.00 | 66 | 1015.7 |
| 20260510081601 | 40 | 218 | 0.0 | 0.9 | 0.00 | 0.00 | 0.00 | 66 | 1015.5 |
| 20260510081057 | 40 | 217 | 0.9 | 0.9 | 0.00 | 0.00 | 0.00 | 66 | 1015.7 |
| 20260510080556 | 40 | 217 | 0.0 | 0.9 | 0.00 | 0.00 | 0.00 | 66 | 1015.6 |
| 20260510080053 | 40 | 217 | 0.9 | 0.9 | 0.00 | 0.00 | 0.00 | 65 | 1015.2 |
| 20260510075550 | 41 | 219 | 0.9 | 0.9 | 0.00 | 0.00 | 0.00 | 64 | 1015.5 |
| 20260510075047 | 41 | 219 | 0.9 | 0.9 | 0.00 | 0.00 | 0.00 | 63 | 1015.5 |
| 20260510074545 | 41 | 219 | 0.9 | 0.9 | 0.00 | 0.00 | 0.00 | 63 | 1015.4 |
| 20260510074039 | 41 | 220 | 0.0 | 0.0 | 0.00 | 0.00 | 0.00 | 63 | 1015.4 |
| 20260510073536 | 41 | 220 | 0.0 | 0.0 | 0.00 | 0.00 | 0.00 | 64 | 1015.4 |
| 20260510073034 | 42 | 219 | 0.9 | 0.9 | 0.00 | 0.00 | 0.00 | 63 | 1015.4 |
| 20260510072530 | 42 | 219 | 0.9 | 0.9 | 0.00 | 0.00 | 0.00 | 61 | 1015.3 |
| 20260510072025 | 42 | 220 | 0.9 | 0.9 | 0.00 | 0.00 | 0.00 | 60 | 1015.4 |
| 20260510071522 | 42 | 220 | 0.9 | 0.9 | 0.00 | 0.00 | 0.00 | 60 | 1015.3 |
| 20260510071020 | 43 | 222 | 0.0 | 0.9 | 0.00 | 0.00 | 0.00 | 59 | 1015.3 |
| 20260510070517 | 43 | 241 | 0.9 | 0.9 | 0.00 | 0.00 | 0.00 | 58 | 1015.3 |
| 20260510070013 | 43 | 241 | 0.9 | 0.9 | 0.00 | 0.00 | 0.00 | 59 | 1015.2 |
| 20260510065510 | 43 | 257 | 0.9 | 0.9 | 0.00 | 0.00 | 0.00 | 58 | 1015.3 |
| 20260510065006 | 44 | 272 | 0.0 | 0.9 | 0.00 | 0.00 | 0.00 | 57 | 1015.4 |
| 20260510064503 | 44 | 272 | 0.0 | 0.0 | 0.00 | 0.00 | 0.00 | 54 | 1015.3 |
| 20260510064000 | 44 | 273 | 0.0 | 0.0 | 0.00 | 0.00 | 0.00 | 54 | 1015.1 |
| 20260510063456 | 44 | 272 | 0.0 | 0.0 | 0.00 | 0.00 | 0.00 | 55 | 1015.3 |
| 20260510062954 | 44 | 272 | 0.0 | 0.0 | 0.00 | 0.00 | 0.00 | 54 | 1015.2 |
| 20260510062449 | 45 | 273 | 0.0 | 0.0 | 0.00 | 0.00 | 0.00 | 54 | 1015.2 |
| 20260510061944 | 45 | 273 | 0.0 | 0.0 | 0.00 | 0.00 | 0.00 | 51 | 1015.1 |
| 20260510061441 | 45 | 273 | 0.0 | 0.0 | 0.00 | 0.00 | 0.00 | 51 | 1015.3 |
| 20260510060937 | 46 | 273 | 0.0 | 0.0 | 0.00 | 0.00 | 0.00 | 51 | 1015.3 |
| 20260510060435 | 46 | 273 | 0.0 | 0.0 | 0.00 | 0.00 | 0.00 | 51 | 1015.3 |
| 20260510055930 | 46 | 273 | 0.0 | 0.0 | 0.00 | 0.00 | 0.00 | 51 | 1015.1 |
| 20260510055426 | 46 | 273 | 0.0 | 0.0 | 0.00 | 0.00 | 0.00 | 51 | 1015.2 |
| 20260510054919 | 46 | 273 | 0.0 | 0.0 | 0.00 | 0.00 | 0.00 | 52 | 1015.2 |
| 20260510054414 | 47 | 273 | 0.0 | 0.0 | 0.00 | 0.00 | 0.00 | 51 | 1015.0 |
| 20260510053909 | 47 | 273 | 0.0 | 0.0 | 0.00 | 0.00 | 0.00 | 51 | 1015.1 |
| 20260510053405 | 48 | 273 | 0.0 | 0.0 | 0.00 | 0.00 | 0.00 | 49 | 1014.9 |
| 20260510052902 | 48 | 273 | 0.0 | 0.0 | 0.00 | 0.00 | 0.00 | 49 | 1014.6 |
| 20260510052357 | 48 | 273 | 0.0 | 0.9 | 0.00 | 0.00 | 0.00 | 49 | 1014.8 |
| 20260510051854 | 49 | 273 | 0.9 | 0.9 | 0.00 | 0.00 | 0.00 | 48 | 1014.9 |
| 20260510051350 | 49 | 274 | 0.0 | 0.9 | 0.00 | 0.00 | 0.00 | 47 | 1015.0 |
| 20260510050847 | 50 | 274 | 0.0 | 0.9 | 0.00 | 0.00 | 0.00 | 46 | 1014.9 |
| 20260510050344 | 50 | 276 | 0.0 | 0.9 | 0.00 | 0.00 | 0.00 | 44 | 1015.0 |
| 20260510045841 | 50 | 263 | 0.9 | 0.9 | 0.00 | 0.00 | 0.00 | 44 | 1014.8 |
| 20260510045338 | 50 | 292 | 0.9 | 1.7 | 0.00 | 0.00 | 0.00 | 43 | 1014.8 |
| 20260510044835 | 50 | 299 | 1.7 | 2.6 | 0.00 | 0.00 | 0.00 | 43 | 1014.8 |
| 20260510044332 | 50 | 279 | 2.6 | 4.3 | 0.00 | 0.00 | 0.00 | 43 | 1014.7 |
| 20260510043828 | 50 | 277 | 0.9 | 1.7 | 0.00 | 0.00 | 0.00 | 44 | 1014.7 |
| 20260510043324 | 50 | 286 | 0.9 | 1.7 | 0.00 | 0.00 | 0.00 | 45 | 1014.5 |
| 20260510042822 | 50 | 271 | 0.0 | 1.7 | 0.00 | 0.00 | 0.00 | 45 | 1014.5 |
| 20260510042318 | 50 | 280 | 0.0 | 0.9 | 0.00 | 0.00 | 0.00 | 46 | 1014.6 |
| 20260510041814 | 50 | 280 | 0.0 | 0.0 | 0.00 | 0.00 | 0.00 | 46 | 1014.6 |
| 20260510041312 | 50 | 280 | 0.0 | 0.9 | 0.00 | 0.00 | 0.00 | 45 | 1014.4 |
| 20260510040809 | 51 | 280 | 0.0 | 0.9 | 0.00 | 0.00 | 0.00 | 44 | 1014.4 |
| 20260510040305 | 51 | 280 | 0.0 | 0.0 | 0.00 | 0.00 | 0.00 | 43 | 1014.0 |
| 20260510035801 | 51 | 281 | 0.9 | 0.9 | 0.00 | 0.00 | 0.00 | 43 | 1014.2 |
| 20260510035257 | 51 | 281 | 0.9 | 0.9 | 0.00 | 0.00 | 0.00 | 43 | 1014.1 |
| 20260510034753 | 51 | 281 | 0.0 | 0.9 | 0.00 | 0.00 | 0.00 | 43 | 1014.1 |
| 20260510034251 | 51 | 280 | 0.0 | 0.0 | 0.00 | 0.00 | 0.00 | 43 | 1014.0 |
| 20260510033747 | 51 | 281 | 0.0 | 0.9 | 0.00 | 0.00 | 0.00 | 42 | 1014.0 |
| 20260510033244 | 52 | 280 | 0.0 | 0.0 | 0.00 | 0.00 | 0.00 | 41 | 1014.1 |
| 20260510032740 | 52 | 280 | 0.0 | 0.9 | 0.00 | 0.00 | 0.00 | 41 | 1014.0 |
| 20260510032237 | 53 | 280 | 0.0 | 0.9 | 0.00 | 0.00 | 0.00 | 40 | 1013.9 |
| 20260510031732 | 53 | 280 | 0.0 | 0.9 | 0.00 | 0.00 | 0.00 | 40 | 1013.9 |
| 20260510031228 | 53 | 282 | 0.9 | 0.9 | 0.00 | 0.00 | 0.00 | 39 | 1013.8 |
| 20260510030727 | 53 | 273 | 0.0 | 0.9 | 0.00 | 0.00 | 0.00 | 38 | 1013.8 |
| 20260510030225 | 54 | 277 | 0.0 | 0.9 | 0.00 | 0.00 | 0.00 | 38 | 1013.4 |
| 20260510025722 | 54 | 281 | 0.0 | 0.9 | 0.00 | 0.00 | 0.00 | 37 | 1013.3 |
| 20260510025214 | 54 | 268 | 0.9 | 1.7 | 0.00 | 0.00 | 0.00 | 37 | 1013.2 |
| 20260510024711 | 54 | 270 | 0.0 | 0.9 | 0.00 | 0.00 | 0.00 | 38 | 1013.3 |
| 20260510024207 | 54 | 290 | 0.0 | 1.7 | 0.00 | 0.00 | 0.00 | 36 | 1013.0 |
| 20260510023703 | 54 | 311 | 0.9 | 1.7 | 0.00 | 0.00 | 0.00 | 35 | 1012.9 |
| 20260510023200 | 54 | 284 | 1.7 | 2.6 | 0.00 | 0.00 | 0.00 | 35 | 1012.6 |
| 20260510022656 | 54 | 280 | 0.9 | 1.7 | 0.00 | 0.00 | 0.00 | 35 | 1012.5 |
| 20260510022150 | 54 | 276 | 0.9 | 1.7 | 0.00 | 0.00 | 0.00 | 35 | 1012.5 |
| 20260510021645 | 54 | 258 | 0.0 | 0.9 | 0.00 | 0.00 | 0.00 | 36 | 1012.3 |
| 20260510021138 | 54 | 303 | 1.7 | 4.3 | 0.00 | 0.00 | 0.00 | 36 | 1012.2 |
| 20260510020632 | 54 | 279 | 0.0 | 0.9 | 0.00 | 0.00 | 0.00 | 36 | 1012.3 |
| 20260510020127 | 54 | 290 | 0.9 | 1.7 | 0.00 | 0.00 | 0.00 | 36 | 1012.1 |
| 20260510015624 | 54 | 279 | 0.9 | 0.9 | 0.00 | 0.00 | 0.00 | 36 | 1012.0 |
| 20260510015120 | 54 | 276 | 0.0 | 0.9 | 0.00 | 0.00 | 0.00 | 36 | 1011.9 |
| 20260510014615 | 55 | 283 | 0.9 | 2.6 | 0.00 | 0.00 | 0.00 | 35 | 1011.7 |
| 20260510014113 | 55 | 279 | 0.9 | 0.9 | 0.00 | 0.00 | 0.00 | 34 | 1011.8 |
| 20260510013608 | 55 | 296 | 0.9 | 1.7 | 0.00 | 0.00 | 0.00 | 34 | 1011.5 |
| 20260510013104 | 56 | 279 | 0.9 | 1.7 | 0.00 | 0.00 | 0.00 | 33 | 1011.6 |
| 20260510012603 | 56 | 268 | 0.0 | 0.9 | 0.00 | 0.00 | 0.00 | 33 | 1011.4 |
| 20260510012100 | 56 | 282 | 0.0 | 1.7 | 0.00 | 0.00 | 0.00 | 32 | 1011.3 |
| 20260510011559 | 56 | 287 | 0.9 | 1.7 | 0.00 | 0.00 | 0.00 | 32 | 1011.3 |
| 20260510011055 | 57 | 283 | 0.9 | 2.6 | 0.00 | 0.00 | 0.00 | 31 | 1011.1 |
| 20260510010552 | 57 | 249 | 0.9 | 5.2 | 0.00 | 0.00 | 0.00 | 30 | 1011.1 |
| 20260510010049 | 57 | 317 | 2.6 | 6.1 | 0.00 | 0.00 | 0.00 | 30 | 1011.2 |
| 20260510005544 | 57 | 293 | 4.3 | 5.2 | 0.00 | 0.00 | 0.00 | 31 | 1011.0 |
| 20260510005042 | 57 | 306 | 3.5 | 7.0 | 0.00 | 0.00 | 0.00 | 30 | 1010.8 |
| 20260510004540 | 58 | 298 | 4.3 | 7.0 | 0.00 | 0.00 | 0.00 | 30 | 1011.0 |
| 20260510004038 | 58 | 330 | 2.6 | 5.2 | 0.00 | 0.00 | 0.00 | 30 | 1010.9 |
| 20260510003534 | 58 | 290 | 3.5 | 5.2 | 0.00 | 0.00 | 0.00 | 29 | 1010.9 |
| 20260510003030 | 58 | 308 | 1.7 | 5.2 | 0.00 | 0.00 | 0.00 | 29 | 1010.8 |
| 20260510002525 | 58 | 277 | 3.5 | 12.2 | 0.00 | 0.00 | 0.00 | 30 | 1010.6 |
| 20260510002023 | 58 | 269 | 1.7 | 4.3 | 0.00 | 0.00 | 0.00 | 30 | 1010.6 |
| 20260510001520 | 59 | 331 | 4.3 | 6.1 | 0.00 | 0.00 | 0.00 | 31 | 1010.6 |
| 20260510001018 | 59 | 271 | 0.9 | 4.3 | 0.00 | 0.00 | 0.00 | 32 | 1010.4 |
| 20260510000513 | 59 | 61 | 3.5 | 4.3 | 0.00 | 0.00 | 0.00 | 31 | 1010.4 |
| 20260510000010 | 59 | 15 | 1.7 | 2.6 | 0.00 | 0.00 | 0.00 | 31 | 1010.4 |
| 20260509235507 | 59 | 305 | 6.1 | 8.7 | 0.00 | 0.00 | 0.00 | 30 | 1010.3 |
| 20260509235003 | 59 | 358 | 1.7 | 5.2 | 0.00 | 0.00 | 0.00 | 31 | 1010.4 |
| 20260509234500 | 59 | 273 | 4.3 | 7.0 | 0.00 | 0.00 | 0.00 | 30 | 1010.3 |
| 20260509233958 | 59 | 1 | 2.6 | 2.6 | 0.00 | 0.00 | 0.00 | 30 | 1010.3 |
| 20260509233455 | 59 | 18 | 4.3 | 6.1 | 0.00 | 0.00 | 0.00 | 30 | 1010.3 |
| 20260509232950 | 59 | 35 | 3.5 | 5.2 | 0.00 | 0.00 | 0.00 | 29 | 1010.1 |
| 20260509232449 | 60 | 292 | 7.0 | 9.6 | 0.00 | 0.00 | 0.00 | 28 | 1010.2 |
| 20260509231944 | 59 | 28 | 4.3 | 7.8 | 0.00 | 0.00 | 0.00 | 28 | 1010.3 |
| 20260509231441 | 60 | 327 | 2.6 | 6.1 | 0.00 | 0.00 | 0.00 | 28 | 1010.1 |
| 20260509230939 | 59 | 302 | 0.9 | 7.0 | 0.00 | 0.00 | 0.00 | 28 | 1010.0 |
| 20260509230436 | 60 | 282 | 7.0 | 13.0 | 0.00 | 0.00 | 0.00 | 28 | 1010.0 |
| 20260509225932 | 60 | 14 | 5.2 | 7.8 | 0.00 | 0.00 | 0.00 | 27 | 1009.9 |
| 20260509225428 | 60 | 316 | 3.5 | 9.6 | 0.00 | 0.00 | 0.00 | 28 | 1010.0 |
| 20260509224925 | 60 | 315 | 3.5 | 7.0 | 0.00 | 0.00 | 0.00 | 27 | 1009.9 |
| 20260509224420 | 60 | 275 | 2.6 | 7.0 | 0.00 | 0.00 | 0.00 | 28 | 1009.5 |
| 20260509223917 | 60 | 329 | 2.6 | 7.8 | 0.00 | 0.00 | 0.00 | 27 | 1009.6 |
| 20260509223414 | 61 | 267 | 4.3 | 5.2 | 0.00 | 0.00 | 0.00 | 25 | 1009.4 |
| 20260509222911 | 60 | 299 | 5.2 | 11.3 | 0.00 | 0.00 | 0.00 | 27 | 1009.5 |
| 20260509222406 | 60 | 302 | 6.1 | 13.9 | 0.00 | 0.00 | 0.00 | 26 | 1009.3 |
| 20260509221902 | 61 | 293 | 2.6 | 6.1 | 0.00 | 0.00 | 0.00 | 26 | 1009.6 |
| 20260509221400 | 61 | 35 | 6.1 | 7.8 | 0.00 | 0.00 | 0.00 | 26 | 1009.4 |
| 20260509220855 | 61 | 313 | 5.2 | 7.0 | 0.00 | 0.00 | 0.00 | 26 | 1009.6 |
| 20260509220351 | 61 | 289 | 2.6 | 6.1 | 0.00 | 0.00 | 0.00 | 26 | 1009.2 |
| 20260509215847 | 60 | 268 | 2.6 | 7.0 | 0.00 | 0.00 | 0.00 | 26 | 1009.2 |
| 20260509215344 | 60 | 283 | 2.6 | 9.6 | 0.00 | 0.00 | 0.00 | 26 | 1009.4 |
| 20260509214841 | 61 | 250 | 4.3 | 11.3 | 0.00 | 0.00 | 0.00 | 26 | 1009.2 |
| 20260509214338 | 60 | 13 | 4.3 | 6.1 | 0.00 | 0.00 | 0.00 | 27 | 1009.2 |
| 20260509213835 | 60 | 324 | 4.3 | 6.1 | 0.00 | 0.00 | 0.00 | 27 | 1009.3 |
| 20260509213330 | 61 | 309 | 7.0 | 11.3 | 0.00 | 0.00 | 0.00 | 27 | 1009.4 |
| 20260509212828 | 61 | 274 | 2.6 | 7.0 | 0.00 | 0.00 | 0.00 | 27 | 1009.1 |
| 20260509212326 | 61 | 287 | 3.5 | 7.8 | 0.00 | 0.00 | 0.00 | 26 | 1009.2 |
| 20260509211821 | 61 | 314 | 3.5 | 13.0 | 0.00 | 0.00 | 0.00 | 27 | 1009.1 |
| 20260509211317 | 60 | 274 | 1.7 | 7.8 | 0.00 | 0.00 | 0.00 | 28 | 1009.1 |
| 20260509210814 | 61 | 316 | 5.2 | 6.1 | 0.00 | 0.00 | 0.00 | 27 | 1009.0 |
| 20260509210312 | 61 | 231 | 4.3 | 8.7 | 0.00 | 0.00 | 0.00 | 28 | 1009.0 |
| 20260509205811 | 60 | 159 | 2.6 | 6.1 | 0.00 | 0.00 | 0.00 | 27 | 1008.8 |
| 20260509205307 | 61 | 287 | 2.6 | 7.8 | 0.00 | 0.00 | 0.00 | 27 | 1008.9 |
| 20260509204803 | 61 | 260 | 2.6 | 7.0 | 0.00 | 0.00 | 0.00 | 27 | 1008.8 |
| 20260509204259 | 61 | 295 | 2.6 | 2.6 | 0.00 | 0.00 | 0.00 | 29 | 1008.8 |
| 20260509203755 | 60 | 251 | 2.6 | 6.1 | 0.00 | 0.00 | 0.00 | 29 | 1008.8 |
| 20260509203253 | 60 | 358 | 6.1 | 8.7 | 0.00 | 0.00 | 0.00 | 29 | 1008.6 |
| 20260509202748 | 61 | 324 | 2.6 | 7.8 | 0.00 | 0.00 | 0.00 | 29 | 1008.7 |
| 20260509202244 | 61 | 262 | 5.2 | 6.1 | 0.00 | 0.00 | 0.00 | 29 | 1008.8 |
| 20260509201738 | 60 | 307 | 1.7 | 7.0 | 0.00 | 0.00 | 0.00 | 30 | 1008.8 |
| 20260509201235 | 61 | 4 | 2.6 | 4.3 | 0.00 | 0.00 | 0.00 | 30 | 1008.5 |
| 20260509200731 | 60 | 295 | 4.3 | 7.8 | 0.00 | 0.00 | 0.00 | 29 | 1008.7 |
| 20260509200227 | 60 | 297 | 4.3 | 7.8 | 0.00 | 0.00 | 0.00 | 29 | 1008.7 |
| 20260509195723 | 60 | 279 | 3.5 | 6.1 | 0.00 | 0.00 | 0.00 | 30 | 1008.6 |
| 20260509195218 | 61 | 294 | 4.3 | 7.0 | 0.00 | 0.00 | 0.00 | 28 | 1008.7 |
| 20260509194713 | 59 | 317 | 3.5 | 7.8 | 0.00 | 0.00 | 0.00 | 30 | 1008.4 |
| 20260509194210 | 59 | 304 | 3.5 | 5.2 | 0.00 | 0.00 | 0.00 | 31 | 1008.5 |
| 20260509193706 | 59 | 341 | 3.5 | 7.0 | 0.00 | 0.00 | 0.00 | 31 | 1008.7 |
| 20260509193201 | 60 | 261 | 2.6 | 8.7 | 0.00 | 0.00 | 0.00 | 31 | 1008.5 |
| 20260509192657 | 60 | 233 | 2.6 | 5.2 | 0.00 | 0.00 | 0.00 | 31 | 1008.4 |
| 20260509192153 | 59 | 285 | 3.5 | 6.1 | 0.00 | 0.00 | 0.00 | 31 | 1008.3 |
| 20260509191648 | 59 | 349 | 3.5 | 6.1 | 0.00 | 0.00 | 0.00 | 30 | 1008.2 |
| 20260509191145 | 60 | 241 | 5.2 | 7.8 | 0.00 | 0.00 | 0.00 | 32 | 1008.3 |
| 20260509190641 | 60 | 265 | 3.5 | 7.0 | 0.00 | 0.00 | 0.00 | 32 | 1008.2 |
| 20260509190138 | 60 | 284 | 2.6 | 8.7 | 0.00 | 0.00 | 0.00 | 33 | 1008.1 |
| 20260509185636 | 59 | 331 | 2.6 | 7.0 | 0.00 | 0.00 | 0.00 | 36 | 1008.0 |
| 20260509185132 | 59 | 277 | 2.6 | 8.7 | 0.00 | 0.00 | 0.00 | 35 | 1008.1 |
| 20260509184630 | 59 | 1 | 5.2 | 6.1 | 0.00 | 0.00 | 0.00 | 36 | 1008.0 |
| 20260509184126 | 59 | 303 | 5.2 | 8.7 | 0.00 | 0.00 | 0.00 | 35 | 1008.0 |
| 20260509183623 | 59 | 27 | 7.0 | 8.7 | 0.00 | 0.00 | 0.00 | 34 | 1008.1 |
| 20260509183118 | 58 | 257 | 0.9 | 8.7 | 0.00 | 0.00 | 0.00 | 35 | 1008.0 |
| 20260509182614 | 60 | 355 | 7.0 | 12.2 | 0.00 | 0.00 | 0.00 | 35 | 1007.7 |
| 20260509182111 | 59 | 261 | 2.6 | 5.2 | 0.00 | 0.00 | 0.00 | 36 | 1007.6 |
| 20260509181609 | 59 | 285 | 2.6 | 8.7 | 0.00 | 0.00 | 0.00 | 37 | 1007.6 |
| 20260509181106 | 58 | 331 | 7.8 | 9.6 | 0.00 | 0.00 | 0.00 | 38 | 1007.6 |
| 20260509180603 | 59 | 305 | 7.0 | 8.7 | 0.00 | 0.00 | 0.00 | 37 | 1007.5 |
| 20260509180100 | 58 | 294 | 2.6 | 8.7 | 0.00 | 0.00 | 0.00 | 38 | 1007.4 |
| 20260509175555 | 58 | 3 | 3.5 | 7.8 | 0.00 | 0.00 | 0.00 | 37 | 1007.5 |
| 20260509175052 | 60 | 270 | 6.1 | 7.8 | 0.00 | 0.00 | 0.00 | 36 | 1007.5 |
| 20260509174548 | 59 | 303 | 6.1 | 7.0 | 0.00 | 0.00 | 0.00 | 37 | 1007.4 |
| 20260509174043 | 59 | 330 | 3.5 | 8.7 | 0.00 | 0.00 | 0.00 | 38 | 1007.3 |
| 20260509173538 | 58 | 325 | 3.5 | 9.6 | 0.00 | 0.00 | 0.00 | 38 | 1007.4 |
| 20260509173035 | 58 | 1 | 7.0 | 13.0 | 0.00 | 0.00 | 0.00 | 39 | 1007.3 |
| 20260509172532 | 58 | 27 | 4.3 | 8.7 | 0.00 | 0.00 | 0.00 | 38 | 1007.2 |
| 20260509172028 | 58 | 320 | 3.5 | 9.6 | 0.00 | 0.00 | 0.00 | 38 | 1007.5 |
| 20260509171524 | 58 | 283 | 4.3 | 8.7 | 0.00 | 0.00 | 0.00 | 39 | 1007.1 |
| 20260509171021 | 58 | 43 | 4.3 | 7.8 | 0.00 | 0.00 | 0.00 | 38 | 1007.2 |
| 20260509170516 | 58 | 276 | 6.1 | 7.0 | 0.00 | 0.00 | 0.00 | 38 | 1007.2 |